Погода в Сектагли

Погода в Сектагли : погода сейчас, прогноз погоды и архив. Всё, что Вы хотите узнать о погоде в Сектагли!

Поиск расширенной информации на нашем сайте:

Другие новости

Новости СМИ2

Главная страница сайта

Новости сайта

03.07.2017

Напоминаем, что на нашем специализированном сайте Метеоцентр.Азия вы можете получить высокодетализированные автоматические прогнозы погоды по пунктам России, СНГ и мира в авиационном формате (включающие направление и скорость ветра, видимость, явления погоды, количество и форму облачности, нижнюю и верхнюю границу облачности).


Погода в Сектагли - сегодня

Время (UTC), дата Ветер
(°,м/с) 
Видим.   Явления Облачность Т
(°С)
Тd
(°С)
f(%) Тe
(°С)
Pmin
(гПа)
dP
(гПа)
Po
(мм)
O2
(г/м3)
Тmin Tmax R s Состояние
почвы
15 15.04.18 тихо ()   20000 м    ясно 
-2.1 -12.3 45 -2  1009.2  0.7  731  298           
18 15.04.18 тихо ()   20000 м    ясно 
-4.7 -9.5 69 -5  1009.9  0.4  732  301           
00 16.04.18 тихо ()   20000 м    ясно 
+1.4 -8 50 +1  1009.4  -0.3  732  294           
03 16.04.18 140 (ЮВ) 20000 м    4/0 верхняя 
[Ci fib]
+11.6 -12.4 17 +13  1006.7  -1.5  731  283           
06 16.04.18 250 (З) 20000 м    8/0 верхняя 
[Ci fib]
+15.2 -17.3 9 +15  1004.7  -1.6  730  280           
12 16.04.18 тихо ()   20000 м    8/0 верхняя 
[Ci fib]
+8.3 -10.1 26 +8  1006.4  1.5  730  286           
15 16.04.18 тихо ()   20000 м    ясно 
+0.8 -8.2 51 +1  1008.1  0.8  731  294           
18 16.04.18 160 (Ю) 20000 м    ясно 
-1.9 -6 74 -1  1008  -0.5  731  297           
00 17.04.18 140 (ЮВ) 20000 м    4/0 верхняя 
[Ci fib]
+5.7 -6.2 42 +7  1005.8  -0.7  730  289           
03 17.04.18 070 (В) 20000 м    10/0 верхняя 
[Cs]
+15.1 -6.2 22 +16  1003.1  -1.6  728  279           
06 17.04.18 230 (ЮЗ) 20000 м    10/0 верхняя 
[Cs]
+17.6 -4.3 22 +19  1001.8  -1  728  276           
12 17.04.18 290 (З) 20000 м    10/0 средняя 
[Ac und]
+9.1 -4.2 39 +10  1004.8  1.8  729  285           
15 17.04.18 290 (З) 20000 м    8/0 средняя 
[Ac trans]
+6.8 -3.2 49 +8  1005.6  0.5  730  287           
18 17.04.18 тихо ()   20000 м    8/0 средняя 
[Ac trans]
+3.1 -2.7 66 +3  1006.5  0.5  730  291           
00 18.04.18 160 (Ю) 20000 м    3/0 верхняя 
[Ci fib]
+5.7 -4.5 48 +7  1008.2  0.3  731  289           
03 18.04.18 250 (З) 20000 м    4/0 верхняя 
[Ci fib]
+12.4 -13.7 15 +12  1007.4  731  283           
06 18.04.18 250 (З) 20000 м    3/0 верхняя 
[Ci fib]
+14 -13 14 +14  1007  -0.3  731  281           
12 18.04.18 250 (З) 20000 м    3/0 верхняя 
[Ci fib]
+6.4 -10.9 28 +7  1007.7  0.8  731  289           
15 18.04.18 160 (Ю) 20000 м    ясно 
+0.2 -6.9 59 +1  1008.8  0.4  731  295           
18 18.04.18 180 (Ю) 20000 м    ясно 
-3 -6.9 74 -3  1009.9  0.5  732  299           
00 19.04.18 160 (Ю) 20000 м    10/0 средняя 
[Ac und]
+2.1 -6.3 54 +3  1010.7  733  294           
03 19.04.18 140 (ЮВ) 10 км  дым  8/0 средняя 
[Ac trans]
+7.3 -9 30 +8  1009.9  -0.2  733  288           
06 19.04.18 230 (ЮЗ) 10 км  дым  8/0 средняя 
[Ac trans]
+15.7 -11.8 14 +16  1006.5  -2.4  731  279           
12 19.04.18 270 (З) 20000 м    ясно 
+10.4 -2.8 39 +12  1007.1  0.6  731  284           
15 19.04.18 тихо ()   20000 м    3/0 верхняя 
[Ci fib]
+4.8 -2.5 59 +5  1009.2  1.3  732  290           
Время (UTC), дата Ветер
(°,м/с) 
Видим.   Явления Облачность Т
(°С)
Тd
(°С)
f(%) Тe
(°С)
Pmin
(гПа)
dP
(гПа)
Po
(мм)
O2
(г/м3)
Тmin Tmax R s Состояние
почвы

Для получения пояснительной информации подведите курсор к названию столбца.

ПОГОДА в Сектагли - архив

Всё, что Вы хотите узнать о погоде в Сектагли - удобно и подробно!

Выберите нужную дату (начиная с 1 января 2015* года) и нажмите кнопку "Найти".
Будут отображены архивные сводки погоды по пункту Сектагли, начиная с указанной даты.


Отображать данные в формате CSV (для использования в таблицах Excel)


Внимание! Наш архив погоды предназначен исключительно для личного некоммерческого использования в познавательных целях. Если Вам необходимы официальные справки о состоянии погоды (для производственных, юридических, коммерческих и т.п. целей), обращайтесь в органы Росгидромета.

*Примечание: данная дата относится к архиву по метеостанциям СССР (Россия, СНГ, Балтия).
Архив по метеостанциям Зарубежной Европы и Азии (кроме Китая) хранится 10 дней, по другим регионам земного шара (Китай, Африка, Америка, Австралия, Океания) - 1 день.

Сектагли - район местоположения метеостанции


Название, широта, долгота, высота метеостанции:
Сектагли 50.4°ш. 131°д. 230 м над ур. моря [Российская Федерация]

Дополнительная информация

В oтличие oт бoльшинства пoгoдных сайтoв мы публикуем пoдрoбную метеoинфoрмацию в детальнoм прoфессиoнальнoм фoрмате.

Характеристики температуры и влажнoсти вoздуха измеряются на высoте 2 м в тени вдали oт зданий и деревьев.
Скoрoсть ветра измеряется на высoте 10 м (на урoвне рoста челoвека скoрoсть ветра ниже в 1.5-2 раза). Если метеoстанция нахoдится в гoрoде или в лесу, тo скoрoсть ветра занижена на 2-4 м/с пo сравнению с oткрытым местoм. Скoрoсть ветра над акватoриями крупных рек и oзёр, а также на вершинах хoлмoв на 2-5 м/с выше, чем в oбычных услoвиях.
Атмoсфернoе давление в разных тoчках местнoсти мoжет значительнo oтличаться oт давления на метеoстанции, в зависимoсти oт услoвий рельефа (при пoдъёме на 10 м давление пoнижается примернo на 1 мм рт.ст.).